TimeCDT,TemperatureF,Dew PointF,Humidity,Sea Level PressureIn,VisibilityMPH,Wind Direction,Wind SpeedMPH,Gust SpeedMPH,PrecipitationIn,Events,Conditions,WindDirDegrees,DateUTC
12:13 AM,39.2,26.6,61,29.68,10.0,SE,6.9,-,N/A,,Clear,140,2013-05-14 05:13:00
12:33 AM,37.4,26.6,65,29.68,10.0,ESE,4.6,-,N/A,,Clear,120,2013-05-14 05:33:00
12:52 AM,35.6,26.6,70,29.67,10.0,SE,3.5,-,N/A,,Clear,140,2013-05-14 05:52:00
1:13 AM,35.6,26.6,70,29.66,10.0,SE,3.5,-,N/A,,Clear,140,2013-05-14 06:13:00
1:32 AM,35.6,26.6,70,29.66,10.0,Calm,Calm,-,N/A,,Clear,0,2013-05-14 06:32:00
1:53 AM,33.8,26.6,75,29.65,10.0,ESE,5.8,-,N/A,,Clear,120,2013-05-14 06:53:00
2:13 AM,33.8,26.6,75,29.64,10.0,SE,5.8,-,N/A,,Clear,130,2013-05-14 07:13:00
2:32 AM,35.6,26.6,70,29.65,10.0,SE,4.6,-,N/A,,Clear,130,2013-05-14 07:32:00
2:53 AM,35.6,26.6,70,29.65,10.0,SE,3.5,-,N/A,,Clear,140,2013-05-14 07:53:00
3:13 AM,37.4,28.4,70,29.64,10.0,Calm,Calm,-,N/A,,Clear,0,2013-05-14 08:13:00
3:32 AM,33.8,26.6,75,29.65,10.0,SE,3.5,-,N/A,,Clear,130,2013-05-14 08:32:00
3:53 AM,32.0,26.6,80,29.64,10.0,SE,4.6,-,N/A,,Clear,130,2013-05-14 08:53:00
4:13 AM,33.8,26.6,75,29.65,10.0,Calm,Calm,-,N/A,,Clear,0,2013-05-14 09:13:00
4:32 AM,30.2,26.6,86,29.64,10.0,Calm,Calm,-,N/A,,Clear,0,2013-05-14 09:32:00
4:53 AM,30.2,26.6,86,29.64,10.0,Calm,Calm,-,N/A,,Clear,0,2013-05-14 09:53:00
5:13 AM,30.2,26.6,86,29.63,10.0,Calm,Calm,-,N/A,,Clear,0,2013-05-14 10:13:00
5:32 AM,30.2,26.6,86,29.63,10.0,Calm,Calm,-,N/A,,Clear,0,2013-05-14 10:32:00
5:53 AM,30.2,26.6,86,29.64,10.0,Calm,Calm,-,N/A,,Clear,0,2013-05-14 10:53:00
6:13 AM,30.2,26.6,86,29.65,10.0,Calm,Calm,-,N/A,,Clear,0,2013-05-14 11:13:00
6:32 AM,32.0,28.4,87,29.65,10.0,Calm,Calm,-,N/A,,Clear,0,2013-05-14 11:32:00
6:53 AM,35.6,30.2,81,29.64,10.0,ESE,4.6,-,N/A,,Clear,110,2013-05-14 11:53:00
7:13 AM,39.2,33.8,81,29.62,10.0,ESE,4.6,-,N/A,,Clear,120,2013-05-14 12:13:00
7:32 AM,42.8,33.8,70,29.63,10.0,Calm,Calm,-,N/A,,Clear,0,2013-05-14 12:32:00
7:53 AM,44.6,33.8,66,29.64,10.0,Calm,Calm,-,N/A,,Clear,0,2013-05-14 12:53:00
8:13 AM,44.6,35.6,71,29.65,10.0,Calm,Calm,-,N/A,,Clear,0,2013-05-14 13:13:00
8:33 AM,44.6,35.6,71,29.68,10.0,Calm,Calm,-,N/A,,Clear,0,2013-05-14 13:33:00
8:53 AM,44.6,35.6,71,29.69,10.0,Calm,Calm,-,N/A,,Clear,0,2013-05-14 13:53:00
9:13 AM,46.4,35.6,66,29.70,10.0,Calm,Calm,-,N/A,,Clear,0,2013-05-14 14:13:00
9:33 AM,48.2,35.6,62,29.71,10.0,SW,3.5,-,N/A,,Scattered Clouds,220,2013-05-14 14:33:00
9:53 AM,48.2,37.4,66,29.70,10.0,Calm,Calm,-,N/A,Rain,Light Rain,0,2013-05-14 14:53:00
10:13 AM,48.2,39.2,71,29.70,10.0,SSW,5.8,-,N/A,Rain,Light Rain,210,2013-05-14 15:13:00
10:32 AM,50.0,39.2,66,29.67,10.0,SSW,4.6,-,N/A,,Scattered Clouds,200,2013-05-14 15:32:00
10:53 AM,51.8,39.2,62,29.65,10.0,South,3.5,-,N/A,Rain,Light Rain,190,2013-05-14 15:53:00
11:13 AM,53.6,39.2,58,29.63,10.0,SSE,8.1,-,N/A,,Mostly Cloudy,160,2013-05-14 16:13:00
11:32 AM,53.6,39.2,58,29.63,10.0,South,6.9,-,N/A,,Mostly Cloudy,170,2013-05-14 16:32:00
11:53 AM,57.2,39.2,51,29.61,10.0,South,5.8,-,N/A,,Scattered Clouds,170,2013-05-14 16:53:00
12:13 PM,64.4,42.8,45,29.59,10.0,SSW,8.1,-,N/A,,Scattered Clouds,200,2013-05-14 17:13:00
12:32 PM,64.4,42.8,45,29.57,10.0,South,9.2,-,N/A,,Scattered Clouds,170,2013-05-14 17:32:00
12:53 PM,69.8,44.6,40,29.55,10.0,SSE,10.4,17.3,N/A,,Scattered Clouds,150,2013-05-14 17:53:00
1:13 PM,71.6,42.8,35,29.53,10.0,SSE,11.5,21.9,N/A,,Clear,160,2013-05-14 18:13:00
1:32 PM,73.4,42.8,33,29.51,10.0,South,19.6,25.3,N/A,,Clear,170,2013-05-14 18:32:00
1:53 PM,75.2,42.8,31,29.49,10.0,SSE,17.3,24.2,N/A,,Clear,160,2013-05-14 18:53:00
2:12 PM,75.2,42.8,31,29.49,10.0,South,23.0,29.9,N/A,,Clear,170,2013-05-14 19:12:00
2:33 PM,75.2,42.8,31,29.47,10.0,South,18.4,31.1,N/A,,Clear,180,2013-05-14 19:33:00
2:53 PM,77.0,42.8,29,29.48,10.0,South,15.0,26.5,N/A,,Clear,180,2013-05-14 19:53:00
3:13 PM,78.8,42.8,28,29.46,10.0,South,15.0,26.5,N/A,,Clear,190,2013-05-14 20:13:00
3:33 PM,77.0,42.8,29,29.44,10.0,South,18.4,26.5,N/A,,Clear,170,2013-05-14 20:33:00
3:52 PM,78.8,41.0,26,29.43,10.0,SSW,18.4,27.6,N/A,,Clear,200,2013-05-14 20:52:00
4:13 PM,78.8,41.0,26,29.42,10.0,SSW,23.0,29.9,N/A,,Clear,200,2013-05-14 21:13:00
4:33 PM,78.8,42.8,28,29.42,10.0,SSW,13.8,26.5,N/A,,Clear,200,2013-05-14 21:33:00
4:52 PM,78.8,42.8,28,29.42,10.0,SW,17.3,25.3,N/A,,Clear,220,2013-05-14 21:52:00
5:13 PM,78.8,42.8,28,29.41,10.0,SSW,12.7,27.6,N/A,,Clear,200,2013-05-14 22:13:00
5:33 PM,78.8,42.8,28,29.38,10.0,South,13.8,20.7,N/A,,Clear,180,2013-05-14 22:33:00
5:52 PM,78.8,42.8,28,29.37,10.0,South,15.0,-,N/A,,Clear,180,2013-05-14 22:52:00
6:13 PM,77.0,42.8,29,29.35,10.0,South,12.7,21.9,N/A,,Scattered Clouds,180,2013-05-14 23:13:00
6:27 PM,75.2,42.8,31,29.35,10.0,South,11.5,17.3,N/A,,Scattered Clouds,170,2013-05-14 23:27:00
6:53 PM,75.2,46.4,36,29.38,10.0,West,12.7,24.2,N/A,,Overcast,270,2013-05-14 23:53:00
7:13 PM,77.0,48.2,36,29.39,10.0,WNW,12.7,29.9,N/A,,Overcast,300,2013-05-15 00:13:00
7:33 PM,75.2,37.4,25,29.41,10.0,WNW,17.3,33.4,N/A,,Scattered Clouds,290,2013-05-15 00:33:00
7:52 PM,73.4,35.6,25,29.43,10.0,WNW,17.3,33.4,N/A,,Clear,290,2013-05-15 00:52:00
8:13 PM,71.6,37.4,29,29.44,10.0,WNW,8.1,25.3,N/A,,Clear,290,2013-05-15 01:13:00
8:33 PM,69.8,37.4,31,29.45,10.0,WNW,12.7,24.2,N/A,,Clear,290,2013-05-15 01:33:00
8:52 PM,68.0,39.2,35,29.46,10.0,WNW,18.4,26.5,N/A,,Clear,290,2013-05-15 01:52:00
9:13 PM,66.2,41.0,40,29.47,10.0,West,12.7,18.4,N/A,,Clear,270,2013-05-15 02:13:00
9:33 PM,64.4,41.0,42,29.48,10.0,West,16.1,21.9,N/A,,Clear,270,2013-05-15 02:33:00
9:52 PM,64.4,41.0,42,29.49,10.0,West,13.8,25.3,N/A,,Scattered Clouds,270,2013-05-15 02:52:00
10:13 PM,64.4,41.0,42,29.49,10.0,West,13.8,19.6,N/A,,Mostly Cloudy,270,2013-05-15 03:13:00
10:33 PM,62.6,42.8,48,29.49,10.0,West,13.8,19.6,N/A,,Mostly Cloudy,260,2013-05-15 03:33:00
10:52 PM,62.6,42.8,48,29.50,10.0,West,15.0,23.0,N/A,,Scattered Clouds,270,2013-05-15 03:52:00
11:13 PM,60.8,42.8,52,29.51,10.0,West,15.0,18.4,N/A,,Clear,280,2013-05-15 04:13:00
11:32 PM,60.8,42.8,52,29.52,10.0,WNW,11.5,18.4,N/A,,Clear,290,2013-05-15 04:32:00
11:53 PM,60.8,44.6,55,29.53,10.0,West,13.8,23.0,N/A,,Clear,280,2013-05-15 04:53:00